Bozeman, MT

3:30 AM MST on January 24, 2018 (GMT -0700)
Gallatin

Weather History for KBZN - February, 2012

Change the Weather History Date:

Saturday, February 18, 2012

  Actual Average Record
Temperature  
Mean Temperature 27 °F 28 °F  
Max Temperature 39 °F 40 °F 56 °F (2015)
Min Temperature 14 °F 15 °F -35 °F (1942)
Degree Days  
Heating Degree Days 38 37  
Month to date heating degree days 735 701  
Since 1 July heating degree days 5034 5223  
Cooling Degree Days 0 0  
Month to date cooling degree days 0 0  
Year to date cooling degree days 0 0  
Moisture  
Dew Point 24 °F    
Average Humidity 77    
Maximum Humidity 100    
Minimum Humidity 54    
Precipitation  
Precipitation 0.06 in 0.02 in 0.28 in (2004)
Month to date precipitation 0.25 0.25  
Year to date precipitation 0.35 0.73  
Snow  
Snow 0.00 in 0.20 in 3.20 in (1951)
Month to date snowfall 5.7 3.0  
Since 1 July snowfall 14.2 20.4  
Snow Depth -    
Sea Level Pressure  
Sea Level Pressure 29.92 in    
Wind  
Wind Speed 5 mph (West)    
Max Wind Speed 18 mph    
Max Gust Speed 23 mph    
Visibility 4 miles    
Events Fog , Snow    
T = Trace of Precipitation, MM = Missing Value Source: NWS Daily Summary

Daily Weather History Graph

Daily Weather History Graph

Search for Another Location

Airport or City:

Trip Planner

Search our weather history database for the weather conditions in past years. The results will help you decide how hot, cold, wet, or windy it might be!

Date:

Astronomy

Feb. 18, 2012 Rise Set
Actual Time 7:22 AM MST 5:55 PM MST
Civil Twilight 6:52 AM MST 6:25 PM MST
Nautical Twilight 6:17 AM MST 7:00 PM MST
Astronomical Twilight 5:43 AM MST 7:34 PM MST
Moon 5:12 AM MST (2/18) 2:48 PM MST (2/18)
Length of Visible Light 11h 33m
Length of Day
10h 32m
Waning Crescent, 11% of the Moon is Illuminated
Feb 18
Waning Crescent
Feb 21
New
Feb 29
First Quarter
Mar 8
Full
Mar 14
Last Quarter

Hourly Weather History & Observations

Time (MST) Temp. Windchill Dew Point Humidity Pressure Visibility Wind Dir Wind Speed Gust Speed Precip Events Conditions
12:56 AM 19.9 °F 8.6 °F 15.1 °F 81% 30.08 in 10.0 mi SSE 10.4 mph - N/A   Clear
1:56 AM 15.1 °F - 12.0 °F 88% 30.09 in 10.0 mi Calm Calm - N/A   Clear
2:56 AM 17.1 °F 8.7 °F 12.9 °F 84% 30.06 in 10.0 mi SSE 5.8 mph - N/A   Clear
3:56 AM 18.0 °F - 12.0 °F 78% 30.04 in 10.0 mi Calm Calm - N/A   Clear
4:56 AM 15.8 °F - 10.4 °F 79% 29.93 in 10.0 mi Calm Calm - N/A   Clear
5:56 AM 17.6 °F 8.2 °F 10.4 °F 73% 29.90 in 10.0 mi ESE 6.9 mph - N/A   Clear
6:56 AM 19.0 °F - 12.9 °F 77% 30.04 in 10.0 mi Calm Calm - N/A   Mostly Cloudy
7:56 AM 24.1 °F 15.2 °F 17.1 °F 75% 30.01 in 10.0 mi SE 8.1 mph - N/A   Overcast
8:56 AM 24.1 °F 18.2 °F 18.0 °F 77% 30.01 in 10.0 mi North 4.6 mph - N/A   Overcast
9:56 AM 28.0 °F - 19.0 °F 69% 30.00 in 10.0 mi Calm Calm - N/A   Mostly Cloudy
10:56 AM 33.1 °F - 21.0 °F 61% 29.96 in 10.0 mi Calm Calm - N/A   Partly Cloudy
11:56 AM 35.6 °F 29.2 °F 24.8 °F 65% 29.83 in 10.0 mi WNW 8.1 mph - N/A   Scattered Clouds
12:56 PM 39.0 °F 34.0 °F 24.1 °F 55% 29.91 in 10.0 mi NW 6.9 mph - N/A   Overcast
1:34 PM 35.6 °F 29.2 °F 28.4 °F 75% 29.82 in 1.8 mi West 8.1 mph 18.4 mph 0.00 in Snow Light Snow
1:48 PM 35.6 °F 28.6 °F 28.4 °F 75% 29.82 in 2.0 mi WNW 9.2 mph - 0.00 in Snow Light Snow
1:56 PM 35.1 °F 32.2 °F 27.0 °F 72% 29.95 in 3.0 mi West 3.5 mph - 0.00 in Snow Light Snow
2:07 PM 33.8 °F 24.8 °F 26.6 °F 75% 29.82 in 1.8 mi WNW 12.7 mph 16.1 mph 0.00 in Snow Light Snow
2:16 PM 33.8 °F 26.4 °F 26.6 °F 75% 29.82 in 1.2 mi NW 9.2 mph - 0.00 in Snow Light Snow
2:30 PM 33.8 °F 27.0 °F 28.4 °F 81% 29.82 in 1.0 mi WNW 8.1 mph - 0.00 in Snow Light Snow
2:38 PM 33.8 °F 27.7 °F 28.4 °F 81% 29.82 in 1.5 mi West 6.9 mph - 0.00 in Snow Light Snow
2:43 PM 32.0 °F 24.2 °F 28.4 °F 87% 29.82 in 3.0 mi West 9.2 mph - 0.00 in Snow Light Snow
2:50 PM 32.0 °F 23.0 °F 28.4 °F 87% 29.82 in 1.8 mi West 11.5 mph - 0.00 in Snow Light Snow
2:56 PM 32.0 °F 23.6 °F 28.9 °F 88% 29.95 in 1.0 mi West 10.4 mph - 0.00 in Snow Light Snow
3:08 PM 32.0 °F 23.6 °F 28.4 °F 87% 29.83 in 0.8 mi West 10.4 mph - 0.00 in Snow Light Snow
3:21 PM 30.2 °F 19.8 °F 28.4 °F 93% 29.83 in 1.0 mi WNW 13.8 mph - 0.00 in Snow Light Snow
3:28 PM 30.2 °F 19.8 °F 28.4 °F 93% 29.83 in 0.8 mi WNW 13.8 mph - 0.00 in Snow Light Snow
3:35 PM 30.2 °F 18.9 °F 28.4 °F 93% 29.83 in 0.5 mi NW 16.1 mph 23.0 mph 0.00 in Fog , Snow Snow
3:43 PM 30.2 °F 20.8 °F 28.4 °F 93% 29.84 in 0.2 mi NW 11.5 mph - 0.01 in Fog , Snow Snow
3:56 PM 30.0 °F 21.7 °F 28.9 °F 96% 29.98 in 0.5 mi NW 9.2 mph - 0.01 in Fog , Snow Snow
4:06 PM 30.2 °F 22.6 °F 28.4 °F 93% 29.85 in 1.0 mi NW 8.1 mph - 0.01 in Snow Light Snow
4:16 PM 30.2 °F 21.9 °F 28.4 °F 93% 29.85 in 1.2 mi WNW 9.2 mph - 0.01 in Snow Light Snow
4:38 PM 30.2 °F 21.3 °F 28.4 °F 93% 29.87 in 1.8 mi West 10.4 mph - N/A Snow Light Snow
4:49 PM 30.2 °F 21.9 °F 28.4 °F 93% 29.87 in 1.0 mi West 9.2 mph - 0.01 in Snow Light Snow
4:56 PM 30.0 °F 22.4 °F 28.0 °F 92% 30.02 in 1.0 mi West 8.1 mph - 0.01 in Snow Light Snow
5:07 PM 30.2 °F 25.4 °F 28.4 °F 93% 29.88 in 1.5 mi West 4.6 mph - 0.00 in Snow Light Snow
5:27 PM 30.2 °F 23.4 °F 28.4 °F 93% 29.89 in 1.0 mi WSW 6.9 mph - 0.00 in Snow Light Snow
5:38 PM 28.4 °F 23.3 °F 28.4 °F 100% 29.89 in 0.8 mi WSW 4.6 mph - 0.00 in Snow Light Snow
5:56 PM 28.4 °F 24.6 °F 28.4 °F 100% 29.90 in 0.5 mi WSW 3.5 mph - N/A Fog , Snow Snow
6:05 PM 28.4 °F 20.4 °F 28.4 °F 100% 29.90 in 0.5 mi WSW 8.1 mph - 0.02 in Fog , Snow Snow
6:16 PM 28.4 °F 21.2 °F 26.6 °F 93% 29.90 in 1.0 mi WSW 6.9 mph - 0.03 in Snow Light Snow
6:25 PM 28.4 °F 20.4 °F 26.6 °F 93% 29.90 in 1.8 mi WSW 8.1 mph - 0.03 in Snow Light Snow
6:34 PM 28.4 °F 19.7 °F 26.6 °F 93% 29.90 in 3.0 mi SW 9.2 mph - 0.03 in Snow Light Snow
6:43 PM 28.4 °F 20.4 °F 26.6 °F 93% 29.90 in 5.0 mi SW 8.1 mph - 0.03 in Snow Light Snow
6:56 PM 28.0 °F 21.7 °F 26.1 °F 92% 30.03 in 9.0 mi SW 5.8 mph - 0.03 in   Overcast
7:56 PM 26.1 °F 19.4 °F 24.1 °F 92% 30.02 in 10.0 mi ESE 5.8 mph - N/A   Overcast
8:56 PM 25.0 °F 19.3 °F 23.0 °F 92% 30.02 in 10.0 mi SE 4.6 mph - N/A   Overcast
9:56 PM 27.0 °F 23.0 °F 24.1 °F 89% 30.01 in 4.0 mi South 3.5 mph - 0.00 in Snow Light Snow
9:59 PM 26.6 °F - 24.8 °F 93% 29.89 in 2.0 mi Calm Calm - 0.00 in Snow Light Snow
10:03 PM 26.6 °F - 24.8 °F 93% 29.89 in 1.2 mi Calm Calm - 0.00 in Snow Light Snow
10:14 PM 26.6 °F 22.6 °F 24.8 °F 93% 29.90 in 1.5 mi SE 3.5 mph - 0.00 in Snow Light Snow
10:20 PM 26.6 °F 22.6 °F 23.0 °F 86% 29.90 in 3.0 mi SE 3.5 mph - 0.00 in Snow Light Snow
10:34 PM 24.8 °F 19.1 °F 21.2 °F 86% 29.89 in 10.0 mi ESE 4.6 mph - 0.00 in   Mostly Cloudy
10:56 PM 21.9 °F 14.5 °F 19.9 °F 92% 30.00 in 10.0 mi ESE 5.8 mph - 0.00 in   Mostly Cloudy
11:56 PM 21.0 °F 16.2 °F 19.9 °F 96% 30.00 in 3.0 mi ESE 3.5 mph - N/A   Clear